Location: Beneden-Haastrecht
(52.0012°N, 4.7557°E)
Time: 03:34:49
(UTC+00:00)

Cosmos 2227 Rocket - Pass Details

Date: 24 October 2020
Orbit: 839 x 845 km, 71.0° (Epoch: 23 November)

Event Time Altitude Azimuth Distance (km) Brightness Sun altitude
Rises 19:48:29 0° 322° (NW) 3,408 6.2 -31.2°
Reaches altitude 10° 19:51:23 10° 308° (NW) 2,470 5.4 -31.6°
Maximum altitude 19:55:44 23° 258° (WSW) 1,714 4.2 -32.2°
Enters shadow 19:58:55 15° 216° (SW) 2,150 4.4 -32.7°
